TimeCEST,TemperatureF,Dew PointF,Humidity,Sea Level PressureIn,VisibilityMPH,Wind Direction,Wind SpeedMPH,Gust SpeedMPH,PrecipitationIn,Events,Conditions,WindDirDegrees,DateUTC
12:00 AM,51.8,46.4,82,29.98,-9999.0,South,4.6,-,N/A,,Clear,190,2012-10-03 22:00:00
1:00 AM,51.8,46.4,82,29.98,-9999.0,Variable,2.3,-,N/A,,Clear,0,2012-10-03 23:00:00
2:00 AM,51.8,44.6,76,29.95,-9999.0,Variable,2.3,-,N/A,,Clear,0,2012-10-04 00:00:00
3:00 AM,50.0,44.6,82,29.95,-9999.0,Variable,2.3,-,N/A,,Clear,0,2012-10-04 01:00:00
4:00 AM,51.8,44.6,76,29.95,-9999.0,Variable,2.3,-,N/A,,Clear,0,2012-10-04 02:00:00
5:00 AM,51.8,44.6,76,29.92,-9999.0,Variable,2.3,-,N/A,,Clear,0,2012-10-04 03:00:00
6:00 AM,50.0,44.6,82,29.92,6.2,Variable,3.5,-,N/A,,Partly Cloudy,0,2012-10-04 04:00:00
7:00 AM,51.8,44.6,76,29.92,6.2,Variable,3.5,-,N/A,,Partly Cloudy,0,2012-10-04 05:00:00
8:00 AM,50.0,46.4,87,29.92,-9999.0,SE,3.5,-,N/A,,Clear,140,2012-10-04 06:00:00
8:30 AM,51.8,46.4,82,29.89,-9999.0,Variable,3.5,-,N/A,,Clear,0,2012-10-04 06:30:00
9:00 AM,53.6,46.4,77,29.89,-9999.0,SSW,4.6,-,N/A,,Clear,200,2012-10-04 07:00:00
9:30 AM,55.4,48.2,77,29.89,-9999.0,South,6.9,-,N/A,,Clear,190,2012-10-04 07:30:00
10:00 AM,55.4,48.2,77,29.89,-9999.0,SSW,8.1,-,N/A,,Clear,200,2012-10-04 08:00:00
10:30 AM,55.4,48.2,77,29.89,-9999.0,South,9.2,20.7,N/A,,Clear,190,2012-10-04 08:30:00
11:00 AM,59.0,48.2,67,29.86,-9999.0,SSW,11.5,-,N/A,,Clear,200,2012-10-04 09:00:00
11:30 AM,59.0,48.2,67,29.86,-9999.0,SSW,9.2,-,N/A,,Clear,200,2012-10-04 09:30:00
12:00 PM,60.8,48.2,63,29.86,-9999.0,South,12.7,-,N/A,,Clear,190,2012-10-04 10:00:00
12:30 PM,60.8,48.2,63,29.83,6.2,South,11.5,-,N/A,,Partly Cloudy,190,2012-10-04 10:30:00
1:00 PM,60.8,48.2,63,29.83,6.2,SSW,12.7,-,N/A,,Scattered Clouds,200,2012-10-04 11:00:00
1:30 PM,60.8,44.6,55,29.80,6.2,SW,15.0,28.8,N/A,Rain,Light Rain Showers,220,2012-10-04 11:30:00
2:00 PM,60.8,46.4,59,29.80,6.2,SSW,13.8,-,N/A,Rain,Light Rain Showers,210,2012-10-04 12:00:00
2:30 PM,59.0,48.2,67,29.77,6.2,SSW,11.5,-,N/A,,Scattered Clouds,210,2012-10-04 12:30:00
3:00 PM,60.8,48.2,63,29.74,6.2,SSW,8.1,-,N/A,Rain,Light Rain Showers,200,2012-10-04 13:00:00
3:30 PM,59.0,50.0,72,29.71,6.2,South,9.2,20.7,N/A,Rain,Light Rain Showers,190,2012-10-04 13:30:00
3:51 PM,55.4,51.8,88,29.77,5.6,SW,16.1,34.5,N/A,Rain,Light Rain Showers,230,2012-10-04 13:51:00
4:00 PM,55.4,51.8,88,29.77,5.0,WSW,15.0,34.5,N/A,Rain,Light Rain Showers,240,2012-10-04 14:00:00
4:30 PM,53.6,50.0,88,29.77,6.2,SW,12.7,27.6,N/A,Rain,Light Rain Showers,230,2012-10-04 14:30:00
5:00 PM,53.6,50.0,88,29.77,6.2,SW,12.7,-,N/A,Rain,Light Rain Showers,230,2012-10-04 15:00:00
5:18 PM,53.6,50.0,88,29.80,4.3,WSW,13.8,26.5,N/A,Rain,Light Rain Showers,240,2012-10-04 15:18:00
5:30 PM,51.8,50.0,94,29.80,6.2,WSW,21.9,40.3,N/A,Rain,Rain Showers,250,2012-10-04 15:30:00
6:00 PM,48.2,46.4,93,29.83,6.2,West,13.8,-,N/A,,Mostly Cloudy,260,2012-10-04 16:00:00
6:30 PM,48.2,44.6,87,29.83,6.2,West,17.3,28.8,N/A,,Mostly Cloudy,270,2012-10-04 16:30:00
7:00 PM,48.2,44.6,87,29.86,6.2,WSW,15.0,27.6,N/A,,Mostly Cloudy,250,2012-10-04 17:00:00
7:30 PM,48.2,42.8,82,29.89,6.2,West,16.1,29.9,N/A,,Scattered Clouds,260,2012-10-04 17:30:00
8:00 PM,46.4,42.8,87,29.92,6.2,West,16.1,-,N/A,,Scattered Clouds,260,2012-10-04 18:00:00
8:30 PM,46.4,42.8,87,29.95,6.2,West,13.8,-,N/A,,Mostly Cloudy,260,2012-10-04 18:30:00
9:00 PM,46.4,42.8,87,29.95,6.2,West,13.8,-,N/A,,Scattered Clouds,260,2012-10-04 19:00:00
10:00 PM,44.6,41.0,87,29.98,6.2,West,13.8,-,N/A,,Partly Cloudy,260,2012-10-04 20:00:00
11:00 PM,44.6,41.0,87,30.04,6.2,WSW,8.1,-,N/A,,Partly Cloudy,250,2012-10-04 21:00:00